Time,B instrument,Bx,By,Bz,sigma B,Ion instrument,Status,Tp_par,Tp_perp,carrot,r_sun,clat,clong,earth_he_angle,n_p,vp_x,vp_y,vp_z,vth_p_par,vth_p_perp
1980-05-07 00:21:08,-1,nan,nan,nan,nan,1,3,nan,nan,1694,0.52857715,-7.1165104,0.022949219,289.27686,nan,573.258,17.235,-1.03469,nan,nan
1980-05-07 00:42:44,-1,nan,nan,nan,nan,1,3,nan,nan,1695,0.52839059,-7.1172857,359.84888,289.2981,nan,508.127,-16.2248,14.6647,nan,nan
1980-05-07 01:04:20,-1,nan,nan,nan,nan,1,3,nan,nan,1695,0.5281952,-7.1180973,359.67188,289.32031,nan,546.639,-58.1943,-1.81342,nan,nan
1980-05-07 01:25:56,-1,nan,nan,nan,nan,1,3,nan,nan,1695,0.5280087,-7.118866,359.4939,289.34155,nan,539.906,-41.0624,22.0975,nan,nan
1980-05-07 01:47:32,-1,nan,nan,nan,nan,1,3,nan,nan,1695,0.52781326,-7.1196718,359.31714,289.36401,nan,543.383,-86.5507,23.6485,nan,nan
1980-05-07 02:09:08,-1,nan,nan,nan,nan,1,3,nan,nan,1695,0.52761781,-7.1204739,359.14404,289.38623,nan,545.918,-23.654,-4.61811,nan,nan
1980-05-07 02:30:44,-1,nan,nan,nan,nan,1,3,nan,nan,1695,0.52743113,-7.1212368,358.96631,289.40771,nan,540.319,-6.61641,48.4203,nan,nan
1980-05-07 02:52:20,-1,nan,nan,nan,nan,1,3,nan,nan,1695,0.52723563,-7.122035,358.78931,289.42993,nan,516.726,-24.0059,39.3023,nan,nan
1980-05-07 03:13:56,-1,nan,nan,nan,nan,1,3,nan,nan,1695,0.52704895,-7.1227942,358.61157,289.45142,nan,537.99,2.1662,26.612,nan,nan
1980-05-07 03:35:32,-1,nan,nan,nan,nan,1,3,nan,nan,1695,0.52685338,-7.1235867,358.43457,289.47363,nan,530.922,-28.5662,-1.79095,nan,nan
1980-05-07 03:57:08,-1,nan,nan,nan,nan,1,3,nan,nan,1695,0.52665776,-7.1243792,358.26172,289.49609,nan,538.496,-84.8747,34.483,nan,nan
1980-05-07 04:18:44,-1,nan,nan,nan,nan,1,3,nan,nan,1695,0.52647102,-7.1251297,358.08398,289.51758,nan,521.047,-28.118,59.6688,nan,nan
1980-05-07 05:48:44,-1,nan,nan,nan,nan,1,-3,nan,nan,1695,0.52567047,-7.1283283,357.34814,289.60986,nan,512.934,-54.961,23.5079,nan,nan
1980-05-07 05:49:25,1,1.69,-1.56,2.4,1.37051,1,1,453238.0,346073.0,1695,0.52566153,-7.1283636,357.34521,289.61084,7.28865,539.544,-29.0317,23.0557,86.5009,75.5861
1980-05-07 05:49:48,1,2.15,-2.0,2.245,0.98284,1,1,399457.0,385551.0,1695,0.52566153,-7.1283636,357.34131,289.61084,7.26853,526.439,-18.9497,38.8658,81.2069,79.7809
1980-05-07 05:52:29,1,5.175,1.47,0.825,0.904903,1,1,162392.0,177513.0,1695,0.52563488,-7.1284695,357.32104,289.61401,4.99656,509.336,-46.7453,41.2743,51.7774,54.1344
1980-05-07 05:53:10,1,5.2381,2.3381,0.471429,1.34487,1,1,331899.0,284363.0,1695,0.52562594,-7.1285057,357.31421,289.61499,5.5846,545.276,9.94313,49.4608,74.022,68.5164
1980-05-07 05:53:50,1,5.075,1.725,0.555,1.98727,1,1,250360.0,245011.0,1695,0.52562594,-7.1285057,357.3064,289.61499,5.49756,504.814,-36.7754,35.2982,64.2896,63.599
1980-05-07 05:54:31,1,3.14444,5.23889,-1.06667,1.3091,1,1,338654.0,305194.0,1695,0.52561706,-7.128541,357.30347,289.61597,6.07763,523.335,-80.1501,49.6913,74.7715,70.9816
1980-05-07 05:55:12,1,5.175,2.745,-0.925,1.96856,1,1,342538.0,258910.0,1695,0.52560818,-7.1285763,357.29688,289.61719,5.74926,524.38,-70.3344,58.2521,75.199,65.3781
1980-05-07 05:55:53,-1,nan,nan,nan,nan,1,4,nan,nan,1695,0.52560818,-7.1285763,357.29297,289.61719,nan,nan,nan,nan,nan,nan
1980-05-07 05:56:33,1,5.36667,-0.744444,-0.116667,0.69079,1,1,215259.0,282320.0,1695,0.5255993,-7.1286116,357.28613,289.61816,5.55439,501.865,-26.9469,40.0487,59.6127,68.2699
1980-05-07 05:57:54,1,6.05,0.105556,-1.07778,0.842798,1,1,193293.0,252986.0,1695,0.52559036,-7.1286469,357.27539,289.61914,5.16911,495.312,-38.3127,54.0438,56.4893,64.6258
1980-05-07 05:58:35,1,5.11053,1.07368,-0.215789,1.30707,1,1,307906.0,309812.0,1695,0.52558148,-7.1286821,357.26855,289.62012,5.86496,504.078,-45.1792,45.6868,71.2963,71.5166
1980-05-07 05:59:56,1,4.12632,-0.263158,1.94737,1.72243,1,1,308257.0,301857.0,1695,0.5255726,-7.1287174,357.25781,289.62109,5.98927,521.765,-20.0402,11.0522,71.3369,70.5925
1980-05-07 06:00:36,1,4.48947,-2.42632,-0.0578947,1.31632,1,1,228478.0,304493.0,1695,0.52556366,-7.1287537,357.25122,289.62231,5.49671,513.982,-14.0587,37.5998,61.4157,70.9
1980-05-07 06:01:17,1,4.785,-2.185,-0.065,1.00141,1,1,309094.0,317575.0,1695,0.52555478,-7.128788,357.24829,289.62329,5.74462,512.185,-11.7526,33.6525,71.4337,72.4071
1980-05-07 06:01:57,1,4.65,-2.19444,0.25,1.51913,1,1,212658.0,260060.0,1695,0.52555478,-7.128788,357.24048,289.62329,4.80853,512.117,-19.2738,30.4568,59.2515,65.5232
1980-05-07 06:02:38,1,4.60526,-3.46316,-0.478947,0.65475,1,1,290308.0,280126.0,1695,0.5255459,-7.1288233,357.23755,289.62427,5.56814,511.278,-11.5857,39.2702,69.2289,68.004
1980-05-07 06:03:18,1,3.99444,-2.75556,0.577778,1.06784,1,1,241106.0,316341.0,1695,0.52553701,-7.1288586,357.23071,289.62524,5.9669,508.759,-22.8916,27.4452,63.0902,72.2662
1980-05-07 06:04:39,1,2.685,-2.745,1.025,0.850662,1,1,275874.0,259872.0,1695,0.52552807,-7.1288939,357.21997,289.62622,5.19867,514.371,-3.98361,24.0301,67.486,65.4994
1980-05-07 06:05:20,1,2.77895,-0.873684,1.52632,2.27278,1,1,373474.0,315689.0,1695,0.52551919,-7.1289291,357.21338,289.62744,6.36906,508.94,-19.4128,23.7365,78.5214,72.1917
1980-05-07 06:06:00,1,2.57778,-2.06667,1.27778,1.48665,1,1,228218.0,262593.0,1695,0.52551031,-7.1289635,357.21045,289.62842,5.73299,518.739,-10.8854,32.3516,61.3808,65.8415
1980-05-07 06:06:41,1,2.46,-2.635,1.345,1.54018,1,1,261802.0,288957.0,1695,0.52551031,-7.1289635,357.20264,289.62842,5.74891,513.905,-14.8428,34.4525,65.7422,69.0676
1980-05-07 06:07:21,1,3.47895,-0.363158,1.66316,1.41793,1,1,304505.0,310258.0,1695,0.52550137,-7.1289988,357.19971,289.62939,5.9259,512.468,-42.3706,24.1127,70.9014,71.5681
1980-05-07 06:08:02,1,3.78421,-1.29474,1.66316,1.497,1,1,314405.0,313779.0,1695,0.52549249,-7.129034,357.19287,289.63037,5.98027,518.212,-17.9601,26.1683,72.0448,71.973
1980-05-07 06:08:42,1,2.89474,-2.08421,2.42632,1.11901,1,1,246487.0,274862.0,1695,0.52549249,-7.129034,357.18506,289.63037,5.51704,524.879,-2.3319,12.0676,63.7903,67.362
1980-05-07 06:09:23,1,4.18421,-0.673684,2.18947,0.75184,1,1,325016.0,314986.0,1695,0.52548361,-7.1290693,357.18237,289.63159,6.04787,514.619,-23.1141,13.6172,73.2504,72.1113
1980-05-07 06:10:03,1,5.48421,-0.0421053,-0.794737,0.843584,1,1,304197.0,270507.0,1695,0.52547467,-7.1291046,357.17554,289.63257,5.41644,499.713,-29.4213,36.4595,70.8656,66.8263
1980-05-07 06:10:44,1,5.67778,-0.577778,-2.35556,0.642334,1,1,276957.0,292707.0,1695,0.52547467,-7.1291046,357.17163,289.63257,5.68543,498.19,-30.221,58.0314,67.6183,69.5143
1980-05-07 06:11:24,1,5.23684,-0.384211,0.0947368,1.1991,1,1,203057.0,291499.0,1695,0.52546579,-7.1291389,357.16479,289.63354,5.32854,493.553,-31.8529,34.8332,57.8985,69.3708
1980-05-07 06:12:05,1,4.64444,0.161111,1.83333,0.994631,1,1,292785.0,281770.0,1695,0.52545691,-7.1291742,357.15796,289.63452,5.89206,508.543,-33.1493,13.3839,69.5237,68.2033
1980-05-07 06:12:45,1,3.33333,-1.01667,1.83889,2.77396,1,1,226847.0,263215.0,1695,0.52545691,-7.1291742,357.15405,289.63452,5.44865,502.877,-46.4163,18.8908,61.1963,65.9194
1980-05-07 06:14:06,1,0.857895,-2.38947,3.60526,0.69334,1,1,284380.0,275244.0,1695,0.52543908,-7.1292448,357.14453,289.63672,5.487,530.152,-21.5391,6.64903,68.5184,67.4088
1980-05-07 06:14:47,-1,nan,nan,nan,nan,1,-3,nan,nan,1695,0.52543908,-7.1292448,357.13672,289.63672,nan,510.996,-54.572,14.0025,nan,nan
1980-05-07 06:16:08,1,3.1,-1.64444,2.12222,0.533102,1,1,289536.0,337182.0,1695,0.52542126,-7.1293154,357.12695,289.63867,7.7425,461.613,56.7446,15.2216,69.1368,74.6088
1980-05-07 06:16:47,1,3.42222,-2.07222,2.63889,0.734469,1,1,182567.0,315520.0,1695,0.52542126,-7.1293154,357.11914,289.63867,6.03712,510.805,-12.4449,5.00786,54.8996,72.1724
1980-05-07 06:17:28,1,3.65263,-2.8,1.43684,1.59393,1,1,202620.0,310037.0,1695,0.52541238,-7.1293497,357.11621,289.63965,5.73835,506.239,-17.2804,16.697,57.8361,71.5426
1980-05-07 06:18:08,1,1.09444,-6.14444,-1.6,1.1084,1,1,186065.0,286258.0,1695,0.5254035,-7.129385,357.10962,289.64087,5.57252,531.819,8.48254,38.2284,55.423,68.7443
1980-05-07 06:20:11,1,-1.605,-2.135,3.515,0.76748,1,1,222971.0,218038.0,1695,0.52538568,-7.1294556,357.09204,289.64282,4.75985,562.992,-11.507,4.67705,60.6711,59.9962
1980-05-07 06:20:51,1,-0.92381,-1.09048,1.50952,1.25346,1,1,384057.0,389102.0,1695,0.52538568,-7.1294556,357.08813,289.64282,6.79866,560.565,-33.5073,15.258,79.6261,80.1474
1980-05-07 06:21:32,1,-2.375,-0.86,3.675,1.41108,1,1,296171.0,311143.0,1695,0.5253768,-7.1294909,357.0813,289.6438,6.41144,559.969,-24.9119,0.172931,69.9245,71.6701
1980-05-07 06:22:12,-1,nan,nan,nan,nan,1,-3,nan,nan,1695,0.52536792,-7.1295252,357.07861,289.64502,nan,561.245,-26.3518,4.02719,nan,nan
1980-05-07 06:22:53,-1,nan,nan,nan,nan,1,4,nan,nan,1695,0.52536786,-7.1295252,357.0708,289.64502,nan,nan,nan,nan,nan,nan
1980-05-07 06:23:33,1,3.82632,-4.81579,0.3,0.737781,1,1,161700.0,257010.0,1695,0.52535897,-7.1295605,357.06787,289.646,4.75104,514.229,6.62665,28.9956,51.6669,65.1378
1980-05-07 06:24:14,1,3.01111,-5.42222,0.0888889,0.428607,1,1,163557.0,240212.0,1695,0.52535009,-7.1295958,357.06104,289.64697,4.89648,510.817,3.23759,32.5248,51.9628,62.9731
1980-05-07 06:24:54,1,3.05789,-5.18947,0.352632,0.553057,1,1,168201.0,230060.0,1695,0.52535009,-7.1295958,357.05322,289.64697,4.44736,512.796,7.86463,32.1271,52.6953,61.628
1980-05-07 06:25:35,1,2.53158,-4.60526,0.884211,1.65967,1,1,146605.0,282493.0,1695,0.52534121,-7.129631,357.05029,289.64795,4.94784,507.881,8.98567,41.2883,49.1963,68.2908
1980-05-07 06:26:15,1,1.09444,-4.98333,-0.7,2.52822,1,1,260023.0,295710.0,1695,0.52533227,-7.1296663,357.0437,289.64917,5.6647,515.425,1.08763,65.3148,65.5185,69.8701
1980-05-07 06:26:56,1,0.331579,-5.37895,0.868421,1.29845,1,1,256437.0,310155.0,1695,0.52533227,-7.1296663,357.03979,289.64917,5.78892,547.49,3.87341,7.33614,65.0651,71.5562
1980-05-07 06:27:36,1,0.97,-4.865,1.37,1.27612,1,1,275265.0,292530.0,1695,0.52532339,-7.1297016,357.03296,289.65015,5.91344,537.827,4.69384,10.7206,67.4114,69.4933
1980-05-07 06:28:17,1,-1.05714,-3.90476,2.81905,2.0572,1,1,192035.0,234478.0,1695,0.52531451,-7.1297359,357.02612,289.65112,5.04003,552.456,0.412933,10.5634,56.3052,62.2169
1980-05-07 06:28:57,1,-0.415,-3.75,2.93,1.07325,1,1,246563.0,283927.0,1695,0.52531451,-7.1297359,357.02222,289.65112,5.74473,540.107,-5.6859,11.8647,63.8002,68.4639
1980-05-07 06:29:38,1,1.24,-6.095,-1.745,1.84671,1,1,288108.0,266914.0,1695,0.52530557,-7.1297712,357.01538,289.6521,5.15796,525.9,6.05609,60.1025,68.9661,66.381
1980-05-07 06:30:18,1,1.455,-5.575,-5.065,1.55358,1,1,187062.0,250239.0,1695,0.52529669,-7.1298065,357.0127,289.65332,4.89544,533.479,14.2486,69.3604,55.5712,64.274
1980-05-07 06:30:59,1,2.61053,-5.21053,-4.81579,1.49492,1,1,180418.0,290520.0,1695,0.52529669,-7.1298065,357.00488,289.65332,5.07813,523.768,-0.776881,87.5753,54.5755,69.2542
1980-05-07 06:31:39,1,2.585,-5.82,-2.645,1.33767,1,1,169773.0,284119.0,1695,0.52528781,-7.1298418,356.99805,289.6543,5.39693,522.053,11.5807,44.3297,52.941,68.487
1980-05-07 06:33:00,1,3.28,-5.44,-1.34,0.427083,1,1,165129.0,231885.0,1695,0.52526999,-7.1299114,356.98828,289.65625,4.89511,519.04,14.141,52.4191,52.2118,61.872
1980-05-07 06:33:41,1,4.415,-2.61,1.545,2.31552,1,1,248334.0,275488.0,1695,0.52526999,-7.1299114,356.98438,289.65625,5.79515,511.521,-13.5415,19.3285,64.0289,67.4387
1980-05-07 06:34:21,1,5.78333,-2.58333,-1.02222,1.48849,1,1,116027.0,263834.0,1695,0.5252611,-7.1299467,356.97754,289.65723,4.87471,488.056,-14.3465,61.2406,43.7661,65.9968
1980-05-07 06:35:02,1,4.78889,-4.2,-0.572222,0.819685,1,1,194979.0,259365.0,1695,0.52525216,-7.129982,356.97485,289.65845,4.81961,497.673,-4.81152,53.9176,56.7352,65.4355
1980-05-07 06:35:42,1,4.78333,-4.46111,-0.205556,0.596155,1,1,144263.0,256080.0,1695,0.52525216,-7.129982,356.96704,289.65845,5.07673,504.313,6.06215,36.1836,48.8017,65.0198
1980-05-07 06:36:23,1,4.57,-4.335,-0.595,0.944378,1,1,133403.0,319931.0,1695,0.52524328,-7.1300173,356.96021,289.65942,5.33784,504.681,5.13056,39.7529,46.929,72.6752
1980-05-07 06:37:03,1,3.37778,-5.39444,-2.22222,1.41366,1,1,169267.0,256566.0,1695,0.5252344,-7.1300526,356.95728,289.6604,5.29013,511.203,8.64532,42.4574,52.862,65.0815
1980-05-07 06:37:44,1,2.685,-5.92,-2.7,0.488748,1,1,178265.0,274873.0,1695,0.5252344,-7.1300526,356.94946,289.6604,5.30732,514.413,13.622,53.8487,54.249,67.3634
1980-05-07 06:38:24,1,2.28889,-5.91667,-2.47778,1.00482,1,1,169529.0,259819.0,1695,0.52522546,-7.1300879,356.94653,289.66138,4.90839,511.603,13.1995,54.1981,52.903,65.4927
1980-05-07 06:39:05,1,2.135,-6.03,-3.19,0.727513,1,1,207260.0,273544.0,1695,0.52521658,-7.1301222,356.93994,289.6626,5.83266,519.921,10.7335,59.4889,58.4946,67.2003
1980-05-07 06:39:45,1,3.26842,-5.24737,-2.85789,1.88197,1,1,182596.0,273968.0,1695,0.52521658,-7.1301222,356.93213,289.6626,5.30839,524.545,11.8921,61.8504,54.904,67.2524
1980-05-07 06:41:06,1,2.67368,-5.93158,-3.21579,0.603636,1,1,179871.0,251737.0,1695,0.52519882,-7.1301928,356.92236,289.66455,5.34416,511.528,9.91217,57.1844,54.4928,64.4661
1980-05-07 06:41:47,1,2.93684,-5.77895,-3.44211,0.524259,1,1,162806.0,268264.0,1695,0.52519876,-7.1301928,356.91846,289.66455,5.33344,515.473,11.9112,58.7912,51.8434,66.5486
1980-05-07 06:42:27,1,3.44737,-4.76842,-4.46842,1.04804,1,1,156443.0,258195.0,1695,0.52518988,-7.130228,356.91162,289.66553,4.89298,503.075,-3.93351,73.2937,50.8201,65.2878
1980-05-07 06:43:08,1,3.13684,-5.1,-3.15263,1.84664,1,1,216212.0,305112.0,1695,0.525181,-7.1302633,356.90503,289.66675,6.25082,500.419,-0.964516,60.2196,59.7444,70.9721
1980-05-07 06:43:48,1,2.415,-5.205,-4.055,1.67369,1,1,160891.0,268969.0,1695,0.525181,-7.1302633,356.90112,289.66675,4.95344,519.586,1.12223,77.5835,51.5376,66.636
1980-05-07 06:44:29,1,1.42,-5.955,-4.325,1.22268,1,1,182937.0,232119.0,1695,0.52517211,-7.1302977,356.89429,289.66772,4.95914,521.709,7.37517,63.8421,54.9552,61.9032
1980-05-07 06:45:09,1,3.03684,-5.28421,-4.72105,1.31751,1,1,146205.0,221807.0,1695,0.52516317,-7.1303329,356.89136,289.6687,4.7059,511.457,9.93827,57.9793,49.1292,60.5126
1980-05-07 06:45:50,1,3.58947,-5.63158,-4.00526,1.06149,1,1,155013.0,202791.0,1695,0.52516317,-7.1303329,356.88354,289.6687,5.18085,505.74,1.38917,63.9471,50.5873,57.8605
1980-05-07 06:46:30,1,4.47222,-5.32222,-4.42222,0.692753,1,1,135093.0,217731.0,1695,0.52515429,-7.1303682,356.88062,289.66968,5.01499,507.458,-6.82998,66.2285,47.2252,59.954
1980-05-07 06:47:11,1,4.51579,-4.60526,-5.18947,0.785816,1,1,147681.0,222976.0,1695,0.52514541,-7.1304035,356.87378,289.67065,5.20429,509.7,-22.1613,82.1143,49.3766,60.6719
1980-05-07 06:47:51,1,4.47895,-4.27368,-5.76842,0.959975,1,1,109548.0,190563.0,1695,0.52514541,-7.1304035,356.86597,289.67065,4.75412,502.094,-13.4421,69.1802,42.5266,56.089
1980-05-07 06:48:32,1,3.93158,-4.26842,-6.21579,0.759756,1,1,139572.0,218555.0,1695,0.52513647,-7.1304388,356.86328,289.67188,4.9868,509.448,-10.5452,75.1444,48.0018,60.0673
1980-05-07 06:49:12,1,4.035,-4.395,-6.005,0.7023,1,1,142002.0,196921.0,1695,0.52512759,-7.1304741,356.85645,289.67285,5.03642,505.523,-13.2539,75.5153,48.4178,57.0169
1980-05-07 06:49:53,1,3.875,-4.915,-5.745,0.603013,1,1,127573.0,208148.0,1695,0.52512759,-7.1304741,356.85254,289.67285,4.82379,507.011,-11.6196,73.7591,45.8921,58.6197
1980-05-07 06:50:33,1,3.45789,-5.04211,-5.43158,1.0641,1,1,128552.0,215933.0,1695,0.52511871,-7.1305084,356.8457,289.67383,4.99305,518.611,6.36959,72.7069,46.0679,59.7059
1980-05-07 06:51:14,1,3.925,-4.01,-5.74,1.36425,1,1,158095.0,186917.0,1695,0.52510977,-7.1305437,356.83887,289.6748,4.74507,504.526,-9.72272,66.3395,51.0878,55.5497
1980-05-07 06:51:54,1,-6.61053,-3.28947,-1.20526,0.934859,1,1,149010.0,217218.0,1695,0.52510977,-7.1305437,356.83496,289.6748,4.00571,587.706,-4.31561,65.6885,49.5982,59.8833
1980-05-07 06:52:35,1,-7.25238,-2.3619,-0.109524,0.9759,1,1,109263.0,254413.0,1695,0.52510089,-7.130579,356.82837,289.67603,4.13052,585.21,-14.1501,48.7445,42.4712,64.8079
1980-05-07 06:53:15,1,-7.275,-2.915,-1.285,1.10019,1,1,231400.0,251044.0,1695,0.52509201,-7.1306143,356.82544,289.677,4.86151,584.623,-19.0195,66.0592,61.8072,64.3774
1980-05-07 06:53:56,1,-7.29524,-2.5381,-3.32381,0.958599,1,1,134363.0,224411.0,1695,0.52509201,-7.1306143,356.81763,289.677,3.80646,578.341,-12.268,79.8623,47.0975,60.8668
1980-05-07 06:54:36,1,-6.63158,-1.94737,-5.14211,0.49176,1,1,139298.0,241011.0,1695,0.52508307,-7.1306496,356.8147,289.67798,4.23031,577.653,-16.1394,90.8162,47.9546,63.0778
1980-05-07 06:55:17,-1,nan,nan,nan,nan,1,4,nan,nan,1695,0.52507418,-7.1306839,356.80786,289.67896,nan,nan,nan,nan,nan,nan
1980-05-07 06:55:57,1,-5.46,-0.17,-6.555,0.762217,1,1,224838.0,251737.0,1695,0.52507418,-7.1306839,356.80005,289.67896,4.16345,562.304,-31.5282,98.2391,60.9246,64.4661
1980-05-07 06:56:38,1,-5.49,-0.54,-6.215,0.60957,1,1,144805.0,238597.0,1695,0.5250653,-7.1307192,356.79736,289.68018,4.27302,570.629,-31.132,102.594,48.8933,62.7611
1980-05-07 06:57:18,1,-5.73,-1.33,-6.14,1.13119,1,1,162678.0,215002.0,1695,0.52505636,-7.1307545,356.79053,289.68115,4.17309,567.245,-19.0856,106.643,51.8229,59.5771
1980-05-07 06:57:59,1,-5.35238,-1.17143,-5.48095,1.09605,1,1,146203.0,205519.0,1695,0.52505636,-7.1307545,356.78662,289.68115,3.73222,569.808,-18.1833,95.0531,49.1288,58.2484
1980-05-07 06:58:39,1,-3.66,-3.225,-6.125,1.38317,1,1,230509.0,258700.0,1695,0.52504748,-7.1307898,356.77979,289.68213,5.25402,551.517,-1.01004,105.264,61.6882,65.3516
1980-05-07 06:59:20,1,-2.97,-2.2,-6.865,1.67463,1,1,300462.0,206814.0,1695,0.5250386,-7.130825,356.77295,289.68311,4.91867,552.374,-7.4646,91.2272,70.4291,58.4316
1980-05-07 07:00:00,1,-2.09048,-1.8,-7.11429,1.69571,1,1,295330.0,274113.0,1695,0.52502972,-7.1308603,356.77026,289.68433,5.19193,545.106,-26.3583,100.114,69.8251,67.2702
1980-05-07 07:00:41,1,-0.238095,-3.18571,-7.3619,1.4662,1,1,286734.0,268330.0,1695,0.52502966,-7.1308603,356.76245,289.68433,5.05406,530.645,-15.6916,95.4602,68.8014,66.5569
1980-05-07 07:01:21,1,1.22632,-3.89474,-6.99474,0.428939,1,1,312279.0,257684.0,1695,0.52502078,-7.1308947,356.75952,289.6853,5.42957,516.019,-5.37422,97.7102,71.8008,65.2231
1980-05-07 07:02:02,1,2.86842,-4.76842,-7.0,0.726278,1,1,125530.0,257714.0,1695,0.5250119,-7.130929,356.75269,289.68628,4.7788,506.823,-8.57607,81.8599,45.523,65.2269
1980-05-07 07:02:42,1,3.02105,-5.03158,-6.78947,0.556801,1,1,108529.0,225633.0,1695,0.5250119,-7.130929,356.74487,289.68628,4.63757,504.088,-7.35144,82.8933,42.3283,61.0322
1980-05-07 07:03:23,1,2.90526,-4.73684,-7.42105,0.478224,1,1,87643.3,190107.0,1695,0.52500296,-7.1309643,356.74194,289.68726,4.11239,508.077,-4.54731,93.8495,38.038,56.0218
1980-05-07 07:04:03,1,2.685,-2.96,-8.325,1.02154,1,1,171798.0,235021.0,1695,0.52499408,-7.1309986,356.73511,289.68823,4.98237,513.596,-23.6219,96.0355,53.2557,62.289
1980-05-07 07:04:44,1,3.21579,-3.64211,-8.59474,0.634161,1,1,111806.0,197221.0,1695,0.52499408,-7.1309986,356.7312,289.68823,4.56827,506.089,-12.2479,89.777,42.9625,57.0604
1980-05-07 07:05:24,1,1.65556,-7.5,-3.3,2.16544,1,1,175472.0,253128.0,1695,0.52498519,-7.1310339,356.72461,289.68945,5.99206,524.049,8.41958,57.8932,53.8222,64.644
1980-05-07 07:06:05,1,1.33684,-8.36842,-3.08421,0.768133,1,1,123103.0,223041.0,1695,0.52497625,-7.1310682,356.72168,289.69043,5.53133,524.135,-0.0756269,56.946,45.0809,60.6807
1980-05-07 07:06:45,1,1.22632,-8.4,-2.92632,0.858201,1,1,145926.0,207330.0,1695,0.52497625,-7.1310682,356.71387,289.69043,4.97769,523.143,1.79365,47.1469,49.0822,58.5044
1980-05-07 07:07:26,1,0.745,-7.555,-3.74,0.897413,1,1,148780.0,228720.0,1695,0.52496737,-7.1311035,356.70703,289.69141,5.25473,527.528,5.01306,60.4282,49.5598,61.4483
1980-05-07 07:08:06,1,0.43,-7.515,-3.26,0.72026,1,1,139421.0,242961.0,1695,0.52495843,-7.1311378,356.7041,289.69238,5.00117,532.451,10.755,64.7038,47.9758,63.3324
1980-05-07 07:08:47,1,0.119048,-7.21429,-3.59048,1.34512,1,1,149407.0,175301.0,1695,0.52495843,-7.1311378,356.69629,289.69238,4.40304,542.011,4.95845,71.6437,49.6641,53.796
1980-05-07 07:09:27,1,1.83158,-6.99474,-3.66842,1.10338,1,1,107317.0,225772.0,1695,0.52494955,-7.1311731,356.6936,289.6936,4.61787,521.902,10.0221,74.6322,42.0912,61.0511
1980-05-07 07:10:08,1,1.59167,-7.175,-0.833333,0.872656,1,1,143707.0,254193.0,1695,0.52494067,-7.1312075,356.68677,289.69458,5.22484,514.928,8.79686,42.5085,48.7077,64.7798
1980-05-07 07:10:48,1,3.70526,-6.09474,-2.71053,0.930106,1,1,124536.0,250532.0,1695,0.52494067,-7.1312075,356.67896,289.69458,5.52812,495.702,5.23326,57.0441,45.3424,64.3116
1980-05-07 07:11:29,1,2.21,-7.055,-0.59,0.808873,1,1,144156.0,207690.0,1695,0.52493173,-7.1312428,356.67603,289.69556,4.68728,517.776,4.93359,45.2541,48.7836,58.5552
1980-05-07 07:12:09,1,1.87895,-6.68947,-0.178947,1.0795,1,1,103498.0,222177.0,1695,0.52492285,-7.1312771,356.66919,289.69653,4.64524,506.789,4.82706,54.9233,41.3355,60.5631
1980-05-07 07:12:50,1,1.75789,-6.40526,-0.252632,1.0668,1,1,151512.0,264121.0,1695,0.52492285,-7.1312771,356.66528,289.69653,5.53367,509.796,8.52605,45.7848,50.0128,66.0327
1980-05-07 07:13:30,1,1.57368,-5.93684,-1.33158,1.93774,1,1,148353.0,238539.0,1695,0.52491397,-7.1313124,356.65869,289.69775,4.65354,521.94,20.5834,48.6648,49.4888,62.7535
1980-05-07 07:14:11,1,3.73158,-5.40526,-4.54737,1.53414,1,1,129009.0,221774.0,1695,0.52490503,-7.1313467,356.65186,289.69873,4.81728,503.546,-3.9233,76.1423,46.1496,60.508
1980-05-07 07:14:51,1,4.13158,-5.02105,-2.60526,1.64576,1,1,146472.0,233028.0,1695,0.52490503,-7.1313467,356.64795,289.69873,4.73106,502.18,-0.547177,67.3577,49.1739,62.0242
1980-05-07 07:15:32,1,4.64211,-4.38421,-2.37895,1.33581,1,1,164709.0,284331.0,1695,0.52489614,-7.131382,356.64111,289.69971,5.94468,486.931,2.84915,54.5163,52.1455,68.5126
1980-05-07 07:16:12,1,5.49474,-3.95789,-2.52105,0.8009,1,1,113720.0,241653.0,1695,0.5248872,-7.1314163,356.63818,289.70068,4.74219,488.404,-0.536096,49.9358,43.3288,63.1617
1980-05-07 07:16:53,1,5.83889,-2.99444,-3.86111,0.79285,1,1,83683.2,235650.0,1695,0.5248872,-7.1314163,356.63037,289.70068,4.72594,487.032,-13.74,80.1949,37.1687,62.3722
1980-05-07 07:17:33,1,5.75556,-3.31667,-3.95556,0.45178,1,1,146138.0,291959.0,1695,0.52487832,-7.1314507,356.62744,289.70166,4.9535,487.776,-9.07556,72.2825,49.1179,69.4255
1980-05-07 07:18:14,1,5.45,-3.86667,-3.77222,0.83003,1,1,142156.0,274966.0,1695,0.52486944,-7.1314859,356.62085,289.70288,5.07078,492.985,-5.63585,68.9589,48.444,67.3748
1980-05-07 07:18:54,1,5.78889,-3.91667,-3.00556,1.0234,1,1,127977.0,244204.0,1695,0.52486944,-7.1314859,356.61304,289.70288,4.50565,488.156,-2.451,55.1245,45.9646,63.4943
1980-05-07 07:19:35,1,6.01667,-3.95556,-3.21667,0.710025,1,1,110899.0,249224.0,1695,0.5248605,-7.1315203,356.61011,289.70386,5.01151,490.865,-0.472211,62.8626,42.7879,64.1435
1980-05-07 07:20:15,1,6.93684,-2.26316,-1.81579,1.18174,1,1,116069.0,240385.0,1695,0.52485162,-7.1315556,356.60327,289.70483,4.97252,488.402,-0.555229,54.3853,43.7739,62.9958
1980-05-07 07:20:56,1,7.27778,-1.58889,-1.63889,0.604229,1,1,134480.0,239158.0,1695,0.52485162,-7.1315556,356.59937,289.70483,5.22933,484.449,-22.9729,50.5145,47.118,62.8348
1980-05-07 07:21:36,1,7.39474,-0.957895,-1.20526,0.800173,1,1,122474.0,267247.0,1695,0.52484268,-7.1315899,356.59253,289.70581,5.32792,483.658,-26.0124,47.0027,44.9656,66.4223
1980-05-07 07:22:17,-1,nan,nan,nan,nan,1,4,nan,nan,1695,0.5248338,-7.1316252,356.58594,289.70703,nan,nan,nan,nan,nan,nan
1980-05-07 07:22:57,1,6.64118,-3.08235,-0.723529,0.77598,1,1,149581.0,266505.0,1695,0.5248338,-7.1316252,356.58203,289.70703,5.4528,487.968,-13.5672,37.5847,49.6931,66.3301
1980-05-07 07:23:38,1,6.92105,-3.20526,-1.13158,0.683725,1,1,136311.0,238822.0,1695,0.52482492,-7.1316595,356.5752,289.70801,4.81996,487.79,-6.28463,46.3438,47.4377,62.7906
1980-05-07 07:24:18,1,6.36667,-3.7,-0.872222,1.11943,1,1,109467.0,233671.0,1695,0.52481598,-7.1316948,356.57227,289.70898,5.23516,488.864,-1.5573,43.919,42.5107,62.1098
1980-05-07 07:24:59,1,6.74211,-3.40526,-1.31053,0.964466,1,1,75387.1,230916.0,1695,0.52481598,-7.1316948,356.56445,289.70898,4.41652,475.446,-14.7806,59.2167,35.2782,61.7426